Madison, WI

11:00 PM CDT on July 21, 2017 (GMT -0500)
Dane County Regional-Truax

Weather History for KMSN - June, 2013

Change the Weather History Date:

Saturday, June 29, 2013

  Actual Average Record
Temperature  
Mean Temperature 68 °F 71 °F  
Max Temperature 73 °F 81 °F 98 °F (1931)
Min Temperature 63 °F 60 °F 43 °F (1989)
Degree Days  
Heating Degree Days 0 1  
Month to date heating degree days 52 62  
Since 1 June heating degree days 52 62  
Since 1 July heating degree days 7237 7335  
Cooling Degree Days 3 6  
Month to date cooling degree days 135 114  
Year to date cooling degree days 188 144  
Since 1 June cooling degree days 135 114  
Growing Degree Days 18 (Base 50)    
Moisture  
Dew Point 62 °F    
Average Humidity 80    
Maximum Humidity 93    
Minimum Humidity 66    
Precipitation  
Precipitation 0.37 in 0.15 in 1.44 in (1933)
Month to date precipitation 10.86 4.40  
Year to date precipitation 30.95 16.23  
Snow  
Snow 0.00 in 0.00 in 0.00 in ()
Month to date snowfall 0.0 0.0  
Since 1 June snowfall 0.0 0.0  
Since 1 July snowfall 70.6 50.9  
Snow Depth 0.00 in    
Sea Level Pressure  
Sea Level Pressure 29.70 in    
Wind  
Wind Speed 10 mph (North)    
Max Wind Speed 23 mph    
Max Gust Speed 31 mph    
Visibility 8 miles    
Events Rain    
T = Trace of Precipitation, MM = Missing Value Source: NWS Daily Summary

Daily Weather History Graph

Daily Weather History Graph

Search for Another Location

Airport or City:

Trip Planner

Search our weather history database for the weather conditions in past years. The results will help you decide how hot, cold, wet, or windy it might be!

Date:

Astronomy

Jun. 29, 2013 Rise Set
Actual Time 5:20 AM CDT 8:40 PM CDT
Civil Twilight 4:45 AM CDT 9:16 PM CDT
Nautical Twilight 3:59 AM CDT 10:02 PM CDT
Astronomical Twilight 3:02 AM CDT 10:58 PM CDT
Moon No Moon Rise 12:44 PM CDT (6/29)
Length of Visible Light 16h 31m
Length of Day
15h 20m
Waning Gibbous, 55% of the Moon is Illuminated
Jun 29
Waning Gibbous
Jun 29
Last Quarter
Jul 8
New
Jul 15
First Quarter
Jul 22
Full

Hourly Weather History & Observations

Time (CDT) Temp. Dew Point Humidity Pressure Visibility Wind Dir Wind Speed Gust Speed Precip Events Conditions
12:23 AM 64.4 °F 62.6 °F 94% 29.65 in 10.0 mi North 4.6 mph - N/A   Overcast
12:53 AM 64.9 °F 63.0 °F 93% 29.64 in 10.0 mi NNW 3.5 mph - N/A   Overcast
1:05 AM 64.4 °F 62.6 °F 94% 29.64 in 10.0 mi NNW 5.8 mph - 0.00 in Rain Light Rain
1:11 AM 64.4 °F 62.6 °F 94% 29.64 in 10.0 mi NW 3.5 mph - 0.00 in   Overcast
1:53 AM 66.0 °F 64.0 °F 93% 29.63 in 10.0 mi North 4.6 mph - 0.00 in   Overcast
2:48 AM 64.4 °F 64.4 °F 100% 29.64 in 3.0 mi NNW 6.9 mph - 0.03 in Rain Rain
2:53 AM 64.9 °F 64.0 °F 97% 29.63 in 5.0 mi NNW 5.8 mph - 0.03 in Rain Light Rain
3:53 AM 64.0 °F 63.0 °F 96% 29.63 in 10.0 mi North 6.9 mph - 0.01 in   Overcast
4:06 AM 64.4 °F 62.6 °F 94% 29.64 in 10.0 mi North 4.6 mph - N/A   Overcast
4:36 AM 64.4 °F 62.6 °F 94% 29.65 in 10.0 mi North 4.6 mph - N/A   Overcast
4:53 AM 64.0 °F 63.0 °F 96% 29.64 in 10.0 mi NNW 5.8 mph - N/A   Overcast
5:10 AM 64.4 °F 62.6 °F 94% 29.65 in 9.0 mi NNW 4.6 mph - N/A   Overcast
5:53 AM 64.0 °F 63.0 °F 96% 29.65 in 4.0 mi North 8.1 mph - 0.04 in Rain Light Rain
6:53 AM 64.9 °F 63.0 °F 93% 29.65 in 8.0 mi North 9.2 mph - 0.00 in   Overcast
7:11 AM 64.4 °F 62.6 °F 94% 29.67 in 6.0 mi North 8.1 mph - 0.01 in Rain Light Rain
7:45 AM 64.4 °F 62.6 °F 94% 29.68 in 0.5 mi North 15.0 mph - 0.02 in Rain Rain
7:53 AM 63.0 °F 62.1 °F 97% 29.67 in 1.0 mi North 9.2 mph - 0.21 in Rain Heavy Rain
8:03 AM 64.4 °F 62.6 °F 94% 29.68 in 2.0 mi North 9.2 mph - 0.04 in Rain Rain
8:28 AM 64.4 °F 62.6 °F 94% 29.68 in 5.0 mi North 10.4 mph - 0.06 in   Overcast
8:53 AM 64.0 °F 62.1 °F 93% 29.68 in 7.0 mi North 10.4 mph - 0.06 in   Overcast
9:53 AM 64.9 °F 62.1 °F 90% 29.69 in 6.0 mi North 11.5 mph - N/A   Overcast
10:17 AM 64.4 °F 62.6 °F 94% 29.70 in 8.0 mi NNE 11.5 mph - N/A   Overcast
10:53 AM 64.9 °F 61.0 °F 87% 29.70 in 9.0 mi North 13.8 mph - 0.00 in   Overcast
11:04 AM 66.2 °F 62.6 °F 88% 29.71 in 9.0 mi North 13.8 mph - N/A   Overcast
11:53 AM 68.0 °F 63.0 °F 84% 29.70 in 10.0 mi NNE 15.0 mph - 0.01 in   Overcast
12:53 PM 69.1 °F 61.0 °F 75% 29.71 in 10.0 mi NE 16.1 mph - 0.00 in Rain Light Rain
1:53 PM 68.0 °F 62.1 °F 81% 29.72 in 10.0 mi NNE 12.7 mph - 0.00 in   Mostly Cloudy
2:23 PM 64.4 °F 60.8 °F 88% 29.74 in 4.0 mi NNE 11.5 mph 31.1 mph 0.00 in Rain Light Rain
2:33 PM 66.2 °F 62.6 °F 88% 29.73 in 6.0 mi North 9.2 mph - 0.01 in Rain Light Rain
2:53 PM 68.0 °F 62.1 °F 81% 29.73 in 10.0 mi North 9.2 mph - 0.01 in   Overcast
3:53 PM 72.0 °F 59.0 °F 64% 29.74 in 10.0 mi NNE 17.3 mph 25.3 mph N/A   Scattered Clouds
4:53 PM 72.0 °F 59.0 °F 64% 29.75 in 10.0 mi NE 13.8 mph - N/A   Mostly Cloudy
5:53 PM 69.1 °F 62.1 °F 78% 29.76 in 10.0 mi North 12.7 mph 17.3 mph 0.00 in   Mostly Cloudy
6:53 PM 69.1 °F 60.1 °F 73% 29.77 in 10.0 mi North 8.1 mph - N/A   Mostly Cloudy
7:53 PM 68.0 °F 59.0 °F 73% 29.79 in 10.0 mi North 8.1 mph - N/A   Mostly Cloudy
8:53 PM 64.9 °F 57.9 °F 78% 29.80 in 10.0 mi North 5.8 mph - N/A   Mostly Cloudy
9:53 PM 64.9 °F 59.0 °F 81% 29.81 in 10.0 mi North 6.9 mph - N/A   Mostly Cloudy
10:53 PM 63.0 °F 59.0 °F 87% 29.83 in 10.0 mi North 6.9 mph - N/A   Scattered Clouds
11:53 PM 64.9 °F 57.9 °F 78% 29.84 in 10.0 mi NNE 9.2 mph - N/A   Overcast